Location: Augirein
(42.9320°N, 0.9181°E)
Time: 14:07:05
(UTC+00:00)

Cosmos 1933 - Pass Details

Date: 20 June 2021
Orbit: 547 x 562 km, 82.5° (Epoch: 31 July)

Event Time Altitude Azimuth Distance (km) Brightness Sun altitude
Rises 02:38:20 0° 344° (NNW) 2,761 7.4 -14.1°
Reaches altitude 10° 02:40:35 10° 338° (NNW) 1,861 6.4 -13.8°
Maximum altitude 02:44:27 41° 268° (W) 822 3.9 -13.4°
Enters shadow 02:46:48 20° 208° (SSW) 1,309 4.6 -13.1°
